Location: Chippewa Lake
(41.0698°N, 81.9010°W)
Time: 02:06:12
(UTC+00:00)

FALCON 9 DEB - Pass Details

Date: 09 May 2021
Orbit: 367 x 381 km, 53.0° (Epoch: 24 June)

Event Time Altitude Azimuth Distance (km) Brightness Sun altitude
Rises 01:03:41 0° 313° (NW) 2,219 8.7 -6.1°
Reaches altitude 10° 01:05:48 10° 321° (NW) 1,366 7.0 -6.5°
Maximum altitude 01:08:41 39° 33° (NNE) 571 3.7 -6.9°
Drops below altitude 10° 01:11:34 10° 104° (ESE) 1,358 5.0 -7.4°
Enters shadow 01:11:41 - 105° (ESE) 1,402 5.1 -7.4°
